Location: Detroit
(42.3310°N, 83.0460°W)
Time: 23:44:50
(UTC-04:00)

A-11 Canister half - Pass Details

Date: 10 February 2023
Orbit: 1526 x 1682 km, 47.3° (Epoch: 20 March)

Event Time Altitude Azimuth Distance (km) Brightness Sun altitude
Rises 03:11:16 0° 210° (SSW) 4,707 - -48.2°
Reaches altitude 10° 03:14:33 10° 203° (SSW) 3,711 - -47.6°
Maximum altitude 03:23:06 42° 137° (SE) 2,060 - -46.3°
Exits shadow 03:25:15 37° 107° (ESE) 2,203 9.9 -45.9°
Drops below altitude 10° 03:31:36 10° 70° (ENE) 3,699 11.6 -44.9°
Sets 03:34:50 0° 64° (ENE) 4,691 12.3 -44.3°
